默认 日期 大小 文件数 浏览量 最新下载 xml
spot磁力链接相关资源由用户搜索指令自动获取,结果来源于网络,本站不存储任何资料,亦不承担任何责任,请于24小时内删除,搜索到3237个磁力,用时3ms。
    {"Check it out.txt": 85, "The Hot Spot.jpg": 70024, "The Hot Spot.txt": 1638, "The Hot Spot [1990]H264 BRRip.mp4[Eng]BlueLady.mp4": 2422043577}
创建时间: 2025-11-16 15:49:34 大小:2.26 GB 文件数量:4 热度:0
    {"lewd-cacr240331swspat.mp4": 330946567, "Torrent Downloaded From XXXClub.to .nfo": 34}
创建时间: 2025-11-18 18:28:18 大小:315.62 MB 文件数量:2 热度:0
    {"Torrent Downloaded From www.Torrenting.org .txt": 86, "Burn Notice S02E11 Hot Spot 1080p DSNP WEB-DL DDP5 1 H 264-FLUX.mkv": 2701247050, "Burn Notice S02E11 Hot Spot 1080p DSNP WEB-DL DDP5 1 H 264-FLUX.nfo": 18993}
创建时间: 2025-11-20 11:36:48 大小:2.52 GB 文件数量:3 热度:0
    {"__ia_thumb.jpg": 4343, "Class of 44 1973 Radio Spot.mp4": 23463651, "Class of 44 1973 Radio Spot.ia.mp4": 2327666, "class-of-44-1973-radio-spot_meta.xml": 1024, "class-of-44-1973-radio-spot_meta.sqlite": 20480}
创建时间: 2025-11-20 12:26:27 大小:24.62 MB 文件数量:5 热度:0
    {"info.xml": 792, "Spot (USA).zip": 17858, "game_image.png": 51169}
创建时间: 2025-11-20 17:23:43 大小:68.18 KB 文件数量:3 热度:0
    ... ].zip": 16114, "Facemaker [T+Rus_Cool-Spot].zip": 16630, "Gyrodine [T+Rus_greengh0st ... ": 110571, "Akumajou Densetsu [T-Rus_Beta_Cool-Spot].zip": 247168, "Batman Returns [T ... House - Wanpaku Graffiti [T-Rus_Cool-Spot+Multisoft].zip": 138125, "Takahashi Meijin ...
创建时间: 2025-11-20 18:13:49 大小:56.64 MB 文件数量:723 热度:0
    ... , "Spinout - Elvis Presley (1966) Radio Spot.mp4": 33662834, "spinout-elvis-presley ... , "Spinout - Elvis Presley (1966) Radio Spot.ia.mp4": 33662834, "spinout-elvis ...
创建时间: 2025-11-24 10:21:01 大小:64.23 MB 文件数量:5 热度:0
    {"Links.txt": 271, "Preview Video.mp4": 227432058}
创建时间: 2025-11-24 15:51:40 大小:216.9 MB 文件数量:2 热度:0
    ... 虎名器「Creamy Spot」OF大尺度 ...
创建时间: 2025-11-25 09:40:50 大小:245.13 MB 文件数量:4 热度:0
    {"ENG.srt": 138589, "POR.srt": 116143, "SPA.srt": 114849, "__ia_thumb.jpg": 5966, "Tight Spot [1955].mkv": 1268477499, "Tight Spot [1955].mp4": 560868579, "tight-spot-1955_202507_meta.xml": 816, "tight-spot-1955_202507_meta.sqlite": 28672}
创建时间: 2025-11-26 09:09:08 大小:1.7 GB 文件数量:8 热度:0
    {"Torrent Downloaded From UIndex.org .txt": 129, "Vera S09E01 Blind Spot 720p AMZN WEB-DL DD 2 0 H 264-playWEB.mkv": 2235692743, "Vera S09E01 Blind Spot 720p AMZN WEB-DL DD 2 0 H 264-playWEB.mkv.nfo": 814}
创建时间: 2025-11-28 08:52:57 大小:2.08 GB 文件数量:3 热度:0
    ... .txt": 129, "Supernatural.S03E11.Mystery.Spot.1080p.HEVC.x265-MeGusta.mkv ... ": 378439757, "Supernatural.S03E11.Mystery.Spot.1080p.HEVC.x265-MeGusta.nfo ...
创建时间: 2025-11-28 13:24:59 大小:378.71 MB 文件数量:6 热度:0
    {"ss1.JPG": 845344, "ss2.JPG": 706518, "G-Spot Express 01.mkv": 296761053, "G-Spot Express 02.mkv": 293465203, "G-Spot.Express.EP01.COVER.jpg": 217691, "G-Spot.Express.EP02.COVER.jpg": 224220}
创建时间: 2025-11-28 14:52:05 大小:564.79 MB 文件数量:6 热度:0
    {"cover.png": 1982368, "13. Tempted.flac": 48736169, "05. Hourglass.flac": 43895754, "04. Goodbye Girl.flac": 39807210, "06. Is That Love.flac": 33308049, "10. Slap And Tickle.flac": 54390313, "14. Up The Junction.flac": 41579740, "12. Take Me I'm Yours. ...
创建时间: 2025-12-01 12:01:49 大小:1.15 GB 文件数量:25 热度:0
    {"Covers": {"Front.jpg": 733582}, "Cover.jpg": 154528, "02. Feelarama.flac": 64546982, "Folder.auCDtect.txt": 1538, "01. The Normal Spot.flac": 46966593}
创建时间: 2025-12-05 15:24:46 大小:107.2 MB 文件数量:5 热度:0
    ... .mp4": 1273732, "The.Grafenberg.Spot.The.Grafenberg.Spot.(1985).1080p.AAC.h264 ...
创建时间: 2025-12-05 17:54:52 大小:6.51 GB 文件数量:66 热度:0
    {"sample.mkv": 34291912, "It.Welcome.to.Derry.S01E07.The.Black.Spot.1080p.WEB.DDP5.1.Atmos.H.265-WAR.mkv": 2086148519, "It.Welcome.to.Derry.S01E07.The.Black.Spot.1080p.WEB.DDP5.1.Atmos.H.265-WAR.nfo": 7075}
创建时间: 2025-12-10 08:20:53 大小:1.97 GB 文件数量:3 热度:0
    ... -galaxy-vol-3-relax-tv-spot-prores_202304_meta.xml": 16873, "guardians-of ... -galaxy-vol-3-relax-tv-spot-prores_202304_meta.sqlite": 110592}
创建时间: 2025-12-10 09:32:24 大小:578.03 MB 文件数量:6 热度:0
    {"IT Welcome to Derry S01E07 The Black Spot 1080p HMax WEB-DL DDP5 1 Atmos H 265-STC.mkv": 1183228221, "IT Welcome to Derry S01E07 The Black Spot 1080p HMax WEB-DL DDP5 1 Atmos H 265-STC.mkv.nfo": 1354}
创建时间: 2025-12-10 10:43:24 大小:1.1 GB 文件数量:2 热度:0
    ... .to.Derry.S01E07.The.Black.Spot.720p.HEVC.x265-MeGusta.mkv ... .to.Derry.S01E07.The.Black.Spot.720p.HEVC.x265-MeGusta.nfo ...
创建时间: 2025-12-10 10:44:53 大小:527.71 MB 文件数量:6 热度:0